Location: Hilton Head Island
(32.2163°N, 80.7526°W)
Time: 14:04:05
(UTC-04:00)

Transit 2A Rocket - Pass Details

Date: 14 February 2026
Orbit: 583 x 900 km, 66.7° (Epoch: 12 March)

Event Time Altitude Azimuth Distance (km) Brightness Sun altitude
Rises 16:33:58 0° 202° (SSW) 3,408 9.2 17.7°
Reaches altitude 10° 16:36:23 10° 201° (SSW) 2,506 8.6 17.3°
Maximum altitude 16:42:16 83° 113° (ESE) 904 5.6 16.2°
Drops below altitude 10° 16:48:19 10° 27° (NNE) 2,575 7.3 15.0°
Sets 16:50:50 0° 27° (NNE) 3,509 7.9 14.6°
